| time (UTC) | temp F | wind direction | speed MPH | gust MPH | rain 1hr in | rain 24hr in | rain mn in | humidity % | barometer mb |
| 20260502223036 | 93 | 333 | 11.0 | 16.0 | 0.00 | 0.00 | 0.00 | 60 | 1007.3 |
| 20260502221522 | 93 | 339 | 14.0 | 21.0 | 0.00 | 0.00 | 0.00 | 59 | 1007.5 |
| 20260502220024 | 93 | 329 | 12.0 | 20.0 | 0.00 | 0.00 | 0.00 | 58 | 1007.5 |
| 20260502214523 | 93 | 306 | 12.0 | 27.0 | 0.00 | 0.00 | 0.00 | 57 | 1007.3 |
| 20260502213024 | 94 | 315 | 15.0 | 23.0 | 0.00 | 0.00 | 0.00 | 55 | 1007.3 |
| 20260502211520 | 97 | 296 | 11.0 | 23.0 | 0.00 | 0.00 | 0.00 | 51 | 1007.3 |
| 20260502210020 | 97 | 302 | 15.0 | 26.0 | 0.00 | 0.00 | 0.00 | 50 | 1007.5 |
| 20260502204519 | 98 | 303 | 16.0 | 26.0 | 0.00 | 0.00 | 0.00 | 47 | 1007.3 |
| 20260502203018 | 98 | 355 | 17.0 | 26.0 | 0.00 | 0.00 | 0.00 | 50 | 1007.1 |
| 20260502200016 | 98 | 319 | 12.0 | 20.0 | 0.00 | 0.00 | 0.00 | 54 | 1007.2 |
| 20260502194528 | 99 | 5 | 14.0 | 19.0 | 0.00 | 0.00 | 0.00 | 54 | 1007.3 |
| 20260502193012 | 97 | 31 | 11.0 | 19.0 | 0.00 | 0.00 | 0.00 | 56 | 1007.5 |
| 20260502191510 | 101 | 355 | 8.0 | 13.0 | 0.00 | 0.00 | 0.00 | 47 | 1007.3 |
| 20260502190006 | 102 | 316 | 5.0 | 14.0 | 0.00 | 0.00 | 0.00 | 46 | 1007.6 |
| 20260502184501 | 101 | 268 | 6.0 | 13.0 | 0.00 | 0.00 | 0.00 | 48 | 1007.8 |
| 20260502183058 | 99 | 310 | 9.0 | 15.0 | 0.00 | 0.00 | 0.00 | 50 | 1008.1 |
| 20260502181554 | 99 | 282 | 6.0 | 13.0 | 0.00 | 0.00 | 0.00 | 51 | 1008.3 |
| 20260502163044 | 95 | 161 | 5.0 | 10.0 | 0.00 | 0.00 | 0.00 | 57 | 1009.4 |
| 20260502161527 | 94 | 227 | 1.0 | 13.0 | 0.00 | 0.00 | 0.00 | 60 | 1009.4 |
| 20260502151525 | 90 | 142 | 11.0 | 18.0 | 0.00 | 0.00 | 0.00 | 68 | 1009.5 |
| 20260502123038 | 80 | 121 | 10.0 | 14.0 | 0.00 | 0.00 | 0.00 | 84 | 1008.8 |
| 20260502121526 | 80 | 96 | 7.0 | 14.0 | 0.00 | 0.00 | 0.00 | 84 | 1008.7 |
| 20260502114519 | 79 | 135 | 7.0 | 13.0 | 0.00 | 0.00 | 0.00 | 84 | 1008.5 |
| 20260502113016 | 80 | 149 | 8.0 | 16.0 | 0.00 | 0.00 | 0.00 | 84 | 1008.3 |
| 20260502111514 | 80 | 139 | 10.0 | 15.0 | 0.00 | 0.00 | 0.00 | 83 | 1008.1 |
| 20260502110019 | 80 | 117 | 9.0 | 17.0 | 0.00 | 0.00 | 0.00 | 84 | 1007.9 |
| 20260502104513 | 80 | 144 | 10.0 | 18.0 | 0.00 | 0.00 | 0.00 | 83 | 1007.8 |
| 20260502103013 | 80 | 145 | 9.0 | 16.0 | 0.00 | 0.00 | 0.00 | 83 | 1007.6 |
| 20260502101511 | 80 | 157 | 10.0 | 16.0 | 0.00 | 0.00 | 0.00 | 83 | 1007.5 |
| 20260502091506 | 80 | 142 | 11.0 | 21.0 | 0.00 | 0.00 | 0.00 | 82 | 1007.3 |
| 20260502070052 | 82 | 142 | 13.0 | 20.0 | 0.00 | 0.00 | 0.00 | 76 | 1008.0 |
| 20260502064646 | 82 | 142 | 11.0 | 17.0 | 0.00 | 0.00 | 0.00 | 75 | 1007.9 |
| 20260502063043 | 83 | 130 | 8.0 | 15.0 | 0.00 | 0.00 | 0.00 | 75 | 1007.8 |
| 20260502061541 | 83 | 139 | 9.0 | 17.0 | 0.00 | 0.00 | 0.00 | 74 | 1008.0 |
| 20260502060037 | 83 | 140 | 8.0 | 16.0 | 0.00 | 0.00 | 0.00 | 74 | 1008.1 |
| 20260502054536 | 84 | 137 | 12.0 | 18.0 | 0.00 | 0.00 | 0.00 | 73 | 1008.0 |
| 20260502053037 | 84 | 147 | 10.0 | 23.0 | 0.00 | 0.00 | 0.00 | 72 | 1008.0 |
| 20260502051535 | 85 | 136 | 17.0 | 23.0 | 0.00 | 0.00 | 0.00 | 72 | 1007.9 |
| 20260502050034 | 85 | 135 | 16.0 | 23.0 | 0.00 | 0.00 | 0.00 | 71 | 1007.8 |
| 20260502044533 | 86 | 126 | 14.0 | 23.0 | 0.00 | 0.00 | 0.00 | 70 | 1007.9 |
| 20260502043033 | 86 | 134 | 15.0 | 24.0 | 0.00 | 0.00 | 0.00 | 69 | 1007.7 |
| 20260502041533 | 87 | 140 | 14.0 | 21.0 | 0.00 | 0.00 | 0.00 | 68 | 1007.7 |
| 20260502040037 | 88 | 151 | 11.0 | 19.0 | 0.00 | 0.00 | 0.00 | 67 | 1007.6 |
| 20260502034530 | 88 | 142 | 16.0 | 23.0 | 0.00 | 0.00 | 0.00 | 66 | 1007.3 |
| 20260502033032 | 89 | 163 | 14.0 | 22.0 | 0.00 | 0.00 | 0.00 | 65 | 1007.2 |
| 20260502031531 | 90 | 136 | 10.0 | 18.0 | 0.00 | 0.00 | 0.00 | 64 | 1006.9 |
| 20260502030028 | 90 | 152 | 10.0 | 22.0 | 0.00 | 0.00 | 0.00 | 63 | 1006.5 |
| 20260502024528 | 91 | 66 | 17.0 | 24.0 | 0.00 | 0.00 | 0.00 | 62 | 1006.4 |
| 20260502023027 | 92 | 145 | 12.0 | 19.0 | 0.00 | 0.00 | 0.00 | 60 | 1006.0 |
| 20260502021526 | 93 | 156 | 10.0 | 20.0 | 0.00 | 0.00 | 0.00 | 56 | 1005.5 |
| 20260502020026 | 94 | 135 | 13.0 | 22.0 | 0.00 | 0.00 | 0.00 | 54 | 1005.2 |
| 20260502014531 | 95 | 166 | 7.0 | 16.0 | 0.00 | 0.00 | 0.00 | 50 | 1004.9 |
| 20260502013124 | 95 | 153 | 7.0 | 15.0 | 0.00 | 0.00 | 0.00 | 48 | 1004.7 |
| 20260502011529 | 96 | 145 | 8.0 | 13.0 | 0.00 | 0.00 | 0.00 | 46 | 1004.3 |
| 20260502010023 | 96 | 152 | 8.0 | 15.0 | 0.00 | 0.00 | 0.00 | 45 | 1004.1 |
| 20260502004523 | 97 | 144 | 9.0 | 15.0 | 0.00 | 0.00 | 0.00 | 44 | 1003.9 |
| 20260502003022 | 97 | 132 | 10.0 | 16.0 | 0.00 | 0.00 | 0.00 | 43 | 1003.7 |
| 20260502001522 | 98 | 140 | 11.0 | 17.0 | 0.00 | 0.00 | 0.00 | 43 | 1003.7 |
| 20260502000021 | 99 | 167 | 10.0 | 15.0 | 0.00 | 0.00 | 0.00 | 42 | 1003.4 |
| 20260501234520 | 99 | 144 | 10.0 | 13.0 | 0.00 | 0.00 | 0.00 | 41 | 1003.5 |
| 20260501233020 | 99 | 119 | 11.0 | 15.0 | 0.00 | 0.00 | 0.00 | 41 | 1003.5 |
| 20260501231520 | 100 | 142 | 7.0 | 14.0 | 0.00 | 0.00 | 0.00 | 41 | 1003.3 |
| 20260501230023 | 100 | 172 | 8.0 | 16.0 | 0.00 | 0.00 | 0.00 | 41 | 1003.2 |
| 20260501224519 | 101 | 169 | 5.0 | 16.0 | 0.00 | 0.00 | 0.00 | 39 | 1003.2 |